Weather History for Covington, KY

Change the Weather History Date:

Thursday, February 21, 2013

  Actual Average Record
Temperature  
Mean Temperature 26 °F 36 °F  
Max Temperature 33 °F 45 °F 70 °F (1930)
Min Temperature 19 °F 27 °F -10 °F (1885)
Degree Days  
Heating Degree Days 39 29  
Month to date heating degree days 687 660  
Since 1 July heating degree days 3515 3632  
Cooling Degree Days 0 0  
Month to date cooling degree days 0 0  
Year to date cooling degree days 0 0  
Moisture  
Dew Point 19 °F    
Average Humidity 66    
Maximum Humidity 77    
Minimum Humidity 54    
Precipitation  
Precipitation 0.21 in 0.10 in 2.73 in (1874)
Month to date precipitation 0.97 2.12  
Year to date precipitation 4.36 5.12  
Snow  
Snow 0.40 in 0.20 in 5.00 in (1893)
Month to date snowfall 6.2 5.2  
Since 1 July snowfall 16.0 17.3  
Snow Depth 0.00 in    
Sea Level Pressure  
Sea Level Pressure 30.24 in    
Wind  
Wind Speed 10 mph (ENE)    
Max Wind Speed 26 mph    
Max Gust Speed 30 mph    
Visibility 9 miles    
Events Rain , Snow    
T = Trace of Precipitation, MM = Missing Value Source: NWS Daily Summary

Daily Weather History Graph

Daily Weather History Graph

Search for Another Location

Airport:

Trip Planner

Search our weather history database for the weather conditions in past years. The results will help you decide how hot, cold, wet, or windy it might be!

Date:

Astronomy

Feb. 21, 2013 Rise Set
Actual Time 7:22 AM EST 6:22 PM EST
Civil Twilight 6:55 AM EST 6:50 PM EST
Nautical Twilight 6:23 AM EST 7:21 PM EST
Astronomical Twilight 5:53 AM EST 7:52 PM EST
Moon 2:38 PM EST (2/21) 4:24 AM EST (2/21)
Length of Visible Light 11h 55m
Length of Day
11h 00m
Waxing Gibbous, 83% of the Moon is Illuminated
Feb 21
Waxing Gibbous
Feb 25
Full
Mar 4
Last Quarter
Mar 11
New
Mar 19
First Quarter

Hourly Weather History & Observations

Time (EST) Temp. Windchill Dew Point Humidity Pressure Visibility Wind Dir Wind Speed Gust Speed Precip Events Conditions
12:52 AM 19.9 °F 11.1 °F 14.0 °F 78% 30.31 in 10.0 mi North 6.9 mph - N/A   Partly Cloudy
1:24 AM 19.4 °F 11.5 °F 12.2 °F 74% 30.29 in 10.0 mi NNW 5.8 mph - N/A   Mostly Cloudy
1:52 AM 19.9 °F 13.4 °F 12.9 °F 74% 30.32 in 10.0 mi NNW 4.6 mph - N/A   Overcast
2:52 AM 19.9 °F 13.4 °F 14.0 °F 78% 30.32 in 10.0 mi North 4.6 mph - N/A   Overcast
3:52 AM 19.9 °F 12.1 °F 12.0 °F 71% 30.30 in 10.0 mi NNE 5.8 mph - N/A   Mostly Cloudy
4:52 AM 19.9 °F 10.1 °F 12.0 °F 71% 30.31 in 10.0 mi NNE 8.1 mph - N/A   Overcast
5:52 AM 21.0 °F 13.4 °F 12.9 °F 71% 30.32 in 10.0 mi NNE 5.8 mph - N/A   Overcast
6:52 AM 21.0 °F 13.4 °F 14.0 °F 74% 30.35 in 10.0 mi NNE 5.8 mph - N/A   Overcast
7:52 AM 21.9 °F 12.5 °F 14.0 °F 72% 30.36 in 10.0 mi NE 8.1 mph - N/A   Overcast
8:52 AM 23.0 °F 15.8 °F 15.1 °F 72% 30.36 in 10.0 mi NNE 5.8 mph - N/A   Overcast
9:52 AM 23.0 °F 14.7 °F 16.0 °F 74% 30.35 in 9.0 mi ENE 6.9 mph - N/A   Overcast
10:52 AM 26.1 °F 18.4 °F 16.0 °F 66% 30.35 in 10.0 mi NE 6.9 mph - N/A   Overcast
11:52 AM 28.0 °F 18.6 °F 17.1 °F 63% 30.32 in 10.0 mi NE 10.4 mph - N/A   Mostly Cloudy
12:30 PM 28.4 °F 22.2 °F 17.6 °F 64% 30.28 in 10.0 mi East 5.8 mph - N/A   Mostly Cloudy
12:52 PM 30.0 °F 22.4 °F 18.0 °F 61% 30.29 in 10.0 mi East 8.1 mph - N/A   Mostly Cloudy
1:52 PM 32.0 °F 22.5 °F 18.0 °F 56% 30.24 in 10.0 mi ENE 12.7 mph - N/A   Mostly Cloudy
2:52 PM 32.0 °F 23.6 °F 19.0 °F 59% 30.22 in 10.0 mi ENE 10.4 mph 19.6 mph N/A   Overcast
3:52 PM 30.9 °F 20.2 °F 19.0 °F 61% 30.20 in 10.0 mi East 15.0 mph - N/A   Overcast
4:52 PM 30.0 °F 19.1 °F 19.0 °F 64% 30.21 in 10.0 mi ENE 15.0 mph 19.6 mph N/A   Overcast
5:52 PM 30.9 °F 19.4 °F 19.0 °F 61% 30.17 in 10.0 mi ENE 17.3 mph - N/A   Overcast
6:52 PM 30.9 °F 23.5 °F 19.9 °F 64% 30.22 in 10.0 mi ENE 8.1 mph - N/A   Overcast
7:11 PM 30.2 °F 21.3 °F 19.4 °F 64% 30.18 in 10.0 mi ENE 10.4 mph - 0.00 in   Light Ice Pellets
7:27 PM 30.2 °F 21.3 °F 19.4 °F 64% 30.18 in 10.0 mi ENE 10.4 mph - 0.00 in   Overcast
7:33 PM 30.2 °F 21.3 °F 19.4 °F 64% 30.17 in 7.0 mi NE 10.4 mph - 0.00 in   Light Ice Pellets
7:52 PM 30.0 °F 22.4 °F 21.9 °F 72% 30.20 in 8.0 mi NE 8.1 mph - 0.01 in   Light Ice Pellets
8:31 PM 30.2 °F 25.4 °F 23.0 °F 75% 30.20 in 9.0 mi ESE 4.6 mph - 0.01 in Rain Light Freezing Rain
8:49 PM 30.2 °F 23.4 °F 23.0 °F 75% 30.19 in 10.0 mi East 6.9 mph - 0.01 in Snow Light Snow
8:52 PM 30.0 °F 23.2 °F 23.0 °F 75% 30.21 in 10.0 mi East 6.9 mph - 0.01 in Snow Light Snow
9:00 PM 30.2 °F 21.9 °F 23.0 °F 75% 30.18 in 6.0 mi East 9.2 mph - 0.00 in Snow Light Ice Pellets
9:20 PM 30.2 °F 19.8 °F 24.8 °F 80% 30.15 in 4.0 mi ENE 13.8 mph - 0.01 in   Ice Pellets
9:30 PM 30.2 °F 19.3 °F 24.8 °F 80% 30.13 in 7.0 mi ENE 15.0 mph - 0.02 in   Light Ice Pellets
9:52 PM 30.0 °F 19.1 °F 24.1 °F 79% 30.14 in 4.0 mi East 15.0 mph - 0.04 in Snow Ice Pellets
9:57 PM 30.2 °F 19.3 °F 24.8 °F 80% 30.10 in 4.0 mi East 15.0 mph - 0.01 in Rain Light Freezing Rain
10:09 PM 30.2 °F 18.1 °F 24.8 °F 80% 30.09 in 5.0 mi East 18.4 mph - 0.02 in Rain Light Freezing Rain
10:52 PM 28.9 °F 15.1 °F 25.0 °F 85% 30.05 in 9.0 mi East 23.0 mph 29.9 mph 0.04 in Rain Light Freezing Rain
11:52 PM 30.0 °F 18.7 °F 27.0 °F 88% 30.07 in 5.0 mi ESE 16.1 mph 23.0 mph 0.11 in Rain Light Freezing Rain